Time[GMT],current_u[cm/s](16m),current_v[cm/s](16m),current_u[cm/s](24m),current_v[cm/s](24m),current_u[cm/s](32m),current_v[cm/s](32m),current_u[cm/s](40m),current_v[cm/s](40m),current_u[cm/s](48m),current_v[cm/s](48m),current_u[cm/s](56m),current_v[cm/s](56m),current_u[cm/s](64m),current_v[cm/s](64m),current_u[cm/s](72m),current_v[cm/s](72m),current_u[cm/s](80m),current_v[cm/s](80m),current_u[cm/s](88m),current_v[cm/s](88m),current_u[cm/s](96m),current_v[cm/s](96m),current_u[cm/s](104m),current_v[cm/s](104m),current_u[cm/s](112m),current_v[cm/s](112m),current_u[cm/s](120m),current_v[cm/s](120m),current_u[cm/s](128m),current_v[cm/s](128m),current_u[cm/s](136m),current_v[cm/s](136m),current_u[cm/s](144m),current_v[cm/s](144m),current_u[cm/s](152m),current_v[cm/s](152m),current_u[cm/s](160m),current_v[cm/s](160m),current_u[cm/s](168m),current_v[cm/s](168m),current_u[cm/s](176m),current_v[cm/s](176m),current_u[cm/s](184m),current_v[cm/s](184m),current_u[cm/s](192m),current_v[cm/s](192m),current_u[cm/s](200m),current_v[cm/s](200m)
2005-04-27 19:00,20.94,-13.86,36.65,-9.13,38.54,-9.16,41.28,-18.99,45.25,-17.93,47.56,-20.23,46.57,-20.76,54.74,-11.20,59.08,-2.77,50.51,-8.47,43.28,-15.72,40.90,-13.86,39.31,-11.54,37.47,-12.02,37.94,-14.81,39.73,-18.75,39.51,-22.29,40.73,-26.10,40.83,-28.69,41.45,-29.02,41.41,-27.25,40.40,-29.67,37.09,-26.53,28.97,-20.21
2005-04-27 20:00,20.69,-19.62,25.53,-24.57,28.87,-26.13,26.75,-29.33,31.72,-31.41,32.72,-32.87,46.51,-29.07,53.25,-26.49,51.86,-29.35,46.00,-35.64,40.74,-41.85,38.47,-41.95,37.46,-35.87,38.79,-35.44,43.67,-37.86,42.82,-42.44,41.79,-50.02,41.93,-49.14,40.89,-51.15,40.95,-51.34,39.24,-49.26,36.31,-51.25,35.08,-50.70,21.93,-35.92
2005-04-27 21:00,5.42,-33.23,2.95,-33.71,5.98,-33.68,18.03,-39.48,28.56,-39.56,42.04,-35.76,43.45,-36.88,41.07,-41.22,37.93,-47.48,31.71,-52.31,28.74,-54.84,32.19,-54.15,36.48,-52.77,42.54,-53.98,48.14,-53.76,48.68,-56.10,47.17,-58.27,43.09,-60.94,39.72,-65.49,36.62,-65.65,32.90,-67.79,29.73,-65.44,27.93,-59.19,16.56,-41.42
2005-04-27 22:00,8.01,-18.75,5.81,-23.66,6.56,-24.36,6.09,-23.88,12.74,-31.51,16.84,-33.14,25.01,-29.15,29.48,-33.91,27.31,-41.54,28.09,-41.71,25.31,-42.18,17.12,-47.75,18.35,-47.99,23.46,-46.24,31.04,-47.28,38.38,-49.22,38.99,-54.07,38.20,-54.22,30.87,-56.25,24.86,-59.45,19.70,-62.68,15.39,-58.39,12.65,-54.44,3.30,-38.75
2005-04-27 23:00,5.37,-12.14,0.21,-20.94,1.27,-25.22,-2.54,-23.50,-0.82,-25.26,2.39,-29.69,7.51,-30.25,11.59,-30.20,8.65,-35.77,4.32,-35.06,5.85,-37.51,3.93,-38.75,-4.96,-36.25,-10.17,-36.35,-10.89,-41.31,-7.01,-44.26,-0.57,-45.34,2.46,-49.20,-1.13,-50.78,-7.97,-51.71,-11.26,-51.61,-13.30,-47.23,-11.15,-44.44,-9.02,-29.15
2005-04-28 00:00,-6.76,1.09,-15.76,-9.15,-20.42,-13.59,-22.46,-12.15,-19.21,-13.10,-19.18,-18.13,-16.13,-14.53,-14.61,-19.92,-17.41,-21.34,-20.33,-19.76,-21.34,-16.94,-17.87,-19.92,-21.25,-16.59,-25.70,-13.19,-36.83,-15.82,-44.11,-19.31,-47.32,-20.76,-44.75,-22.56,-42.12,-25.50,-41.71,-25.47,-38.99,-22.50,-36.99,-21.85,-29.77,-18.17,-24.63,-10.95
2005-04-28 01:00,-25.30,19.92,-42.08,17.89,-40.22,17.33,-39.17,21.56,-35.81,16.02,-41.18,14.09,-42.55,13.12,-42.09,8.44,-44.69,8.02,-48.48,14.26,-49.63,16.52,-50.76,14.48,-52.36,11.97,-53.56,9.80,-57.38,9.93,-61.99,7.93,-63.58,4.69,-64.66,12.32,-59.81,13.57,-56.95,11.86,-54.02,14.17,-50.78,15.52,-41.53,13.55,-28.06,13.15
2005-04-28 02:00,,,,,,,,,,,,,,,,,,,,,,,,,,,,,,,,,,,,,,,,,,,,,,,,
2005-04-28 03:00,-45.21,20.77,-46.82,21.83,-49.05,25.84,-45.46,30.36,-39.17,33.01,-36.63,28.05,-41.72,27.88,-40.32,34.00,-41.37,39.86,-40.03,40.92,-43.74,42.67,-46.98,44.26,-51.33,45.06,-55.27,49.16,-56.04,51.54,-54.19,55.60,-49.94,56.43,-47.08,51.79,-46.57,43.97,-45.31,38.07,-40.00,34.63,-31.00,33.42,-17.61,29.32,-5.50,20.40
2005-04-28 04:00,-41.33,23.39,-41.01,23.38,-40.51,26.06,-38.11,25.47,-40.11,22.20,-42.58,18.78,-47.24,17.60,-42.95,25.49,-44.38,36.16,-48.91,35.55,-45.25,37.25,-40.87,39.29,-39.92,41.59,-42.43,40.57,-43.12,41.72,-42.00,42.49,-36.94,45.06,-31.75,43.27,-31.42,36.02,-28.60,30.52,-24.15,26.80,-15.60,27.65,-5.81,23.66,-6.35,14.87
2005-04-28 05:00,-36.27,37.09,-31.45,30.23,-28.85,28.02,-27.06,27.02,-19.91,23.75,-22.45,23.15,-25.09,21.56,-28.85,19.52,-25.88,15.85,-22.78,16.32,-22.81,16.73,-20.40,16.77,-16.37,18.27,-13.56,20.64,-10.51,24.88,-7.45,23.86,-5.96,24.45,-3.10,23.06,0.77,17.89,1.81,9.40,6.01,6.13,10.43,5.13,17.47,4.46,8.60,2.34
2005-04-28 06:00,-1.73,0.81,1.42,-2.80,0.78,-3.74,-3.67,-0.34,-1.90,2.33,-0.63,2.95,6.70,2.36,9.49,0.21,2.49,-1.20,-5.58,-1.27,-8.08,-1.65,-7.23,-4.32,-4.74,-2.26,-2.22,-3.23,-1.55,-8.27,-2.09,-14.11,-1.40,-20.51,1.71,-22.98,7.99,-26.53,12.19,-26.86,15.79,-30.22,14.48,-31.69,15.92,-27.34,3.54,-23.13
2005-04-28 07:00,13.54,-10.78,17.83,-17.59,21.80,-16.53,20.72,-16.77,24.17,-16.71,26.74,-24.39,27.37,-24.09,24.10,-22.40,17.90,-16.83,14.41,-15.12,12.93,-14.44,16.18,-12.13,19.78,-13.19,23.77,-15.47,20.48,-18.32,20.15,-22.52,22.02,-30.32,23.61,-35.27,29.59,-38.50,30.91,-41.96,30.06,-43.91,29.42,-44.85,27.73,-43.19,16.35,-37.50
2005-04-28 08:00,38.38,-35.47,40.54,-43.17,35.58,-40.15,34.72,-37.48,36.72,-42.72,34.32,-42.12,34.45,-39.25,28.17,-32.44,27.44,-29.84,25.99,-26.63,30.45,-26.14,36.95,-30.67,38.40,-30.94,34.95,-30.68,32.67,-34.36,38.41,-41.13,43.87,-44.73,45.55,-42.09,47.63,-42.37,43.50,-44.54,40.18,-47.28,31.46,-51.55,23.80,-49.91,13.25,-37.34
2005-04-28 09:00,27.59,-33.26,29.36,-42.04,28.70,-36.05,24.93,-39.05,27.29,-42.81,25.05,-45.63,29.11,-36.03,33.82,-35.98,43.74,-39.73,50.48,-33.58,52.89,-36.16,54.71,-45.77,59.64,-46.07,63.96,-46.79,62.08,-45.18,60.77,-49.91,56.08,-52.99,55.96,-55.55,54.56,-56.74,45.90,-58.57,45.04,-62.10,33.51,-55.62,25.09,-47.08,21.63,-36.96
2005-04-28 10:00,11.41,-14.61,11.57,-20.65,3.18,-15.78,3.87,-10.42,0.50,-17.27,7.26,-10.17,10.70,-7.49,14.19,-12.46,21.29,-16.90,26.13,-16.61,24.66,-20.86,26.55,-23.82,34.46,-26.85,35.30,-24.90,36.68,-23.30,36.58,-26.27,34.04,-30.77,30.13,-34.96,29.05,-38.15,23.86,-38.97,20.34,-39.16,18.61,-35.40,0.85,-23.25,-8.91,-7.90
2005-04-28 11:00,9.23,2.65,10.19,0.33,10.86,-4.71,9.05,-13.79,10.05,-17.88,7.16,-13.46,8.11,-12.83,14.67,-11.99,7.06,-16.74,4.96,-22.98,8.33,-30.20,7.64,-38.51,10.62,-42.91,6.60,-46.09,1.53,-50.55,2.00,-53.66,2.73,-55.94,2.93,-55.25,1.72,-56.37,0.33,-55.98,-0.40,-61.89,0.49,-58.76,3.82,-48.87,-11.83,-31.53
2005-04-28 12:00,-2.30,17.64,-2.15,8.97,-1.74,6.06,-0.80,-3.72,-11.46,-12.08,-13.22,-14.12,-12.51,-10.42,-9.24,-11.47,-17.61,-10.91,-14.82,-10.43,-10.50,-17.02,-9.89,-24.49,-11.48,-26.06,-13.50,-27.96,-16.77,-28.91,-17.24,-32.00,-15.77,-35.94,-17.91,-35.16,-19.23,-40.52,-18.94,-42.42,-12.96,-39.13,-14.78,-37.72,-9.33,-34.40,-14.39,-23.21
2005-04-28 13:00,-26.97,6.47,-20.30,5.66,-20.66,4.50,-28.52,-5.38,-35.06,-7.90,-38.18,-3.44,-49.86,-13.49,-57.59,-14.60,-55.50,-8.37,-50.16,-5.71,-50.97,-8.07,-53.41,-10.63,-50.51,-15.06,-46.45,-19.22,-46.73,-13.43,-48.96,-14.35,-54.77,-13.91,-49.99,-19.31,-55.56,-17.00,-46.53,-15.36,-42.53,-10.50,-45.88,-2.34,-35.65,-3.46,-23.42,-10.14
2005-04-28 14:00,-26.29,24.96,-23.36,24.01,-24.12,20.82,-24.78,21.56,-23.19,27.74,-18.29,27.84,-26.56,26.13,-29.36,22.08,-30.51,29.27,-32.08,27.30,-35.31,26.89,-40.34,26.85,-42.84,26.79,-43.93,22.66,-44.95,19.28,-42.04,13.50,-44.53,11.12,-39.58,10.08,-38.40,13.61,-36.35,16.06,-32.89,17.38,-31.07,15.65,-29.52,10.16,-16.41,8.91
2005-04-28 15:00,-31.71,32.36,-29.93,21.27,-33.99,20.49,-36.22,18.93,-42.89,22.04,-41.53,24.68,-43.91,30.12,-40.00,29.38,-35.24,27.97,-34.51,30.62,-34.51,36.18,-36.64,38.23,-41.92,38.64,-44.24,37.68,-46.92,38.50,-49.90,35.02,-46.43,33.72,-49.43,28.35,-45.10,25.64,-43.91,21.30,-38.46,21.99,-33.69,15.96,-21.08,20.85,-11.95,9.08
2005-04-28 16:00,-18.79,24.84,-21.86,24.91,-30.76,27.10,-32.64,31.32,-34.53,37.23,-33.90,37.22,-32.74,30.66,-33.89,29.98,-37.24,32.89,-37.16,28.08,-35.54,28.92,-31.91,28.40,-31.82,28.44,-33.08,31.07,-29.72,32.37,-29.77,33.50,-28.64,32.92,-33.05,28.67,-34.99,21.96,-33.40,16.37,-26.38,14.11,-21.80,13.59,-11.22,12.05,-2.93,9.14
2005-04-28 17:00,-27.96,19.70,-29.18,24.14,-28.02,31.65,-30.35,32.69,-34.11,35.58,-32.60,31.86,-33.27,25.76,-34.22,25.46,-33.63,24.28,-34.03,25.83,-34.53,26.09,-31.60,24.83,-29.47,23.10,-30.51,23.39,-34.05,23.31,-36.61,18.18,-39.30,12.17,-35.86,8.97,-32.28,8.96,-27.50,10.08,-21.39,10.67,-14.66,6.74,-11.33,-3.95,-7.86,1.26
2005-04-28 18:00,12.97,14.56,11.04,11.74,13.64,23.28,15.40,25.95,14.86,25.04,9.22,27.54,6.63,27.12,6.91,23.96,4.75,20.85,3.22,19.41,6.10,25.49,5.79,25.80,5.45,26.54,1.36,25.85,-2.26,21.12,-6.33,14.14,-6.55,8.30,-6.30,7.53,-4.35,4.38,0.90,7.33,6.35,5.08,8.99,1.10,9.26,-0.39,7.04,-1.00
2005-04-28 19:00,28.67,-3.92,24.52,-12.92,29.05,-1.49,29.28,5.30,27.64,-0.05,29.10,2.93,34.40,2.43,26.78,1.98,21.02,-0.71,23.06,0.16,24.18,7.45,23.15,11.63,19.47,13.29,21.37,7.70,15.20,4.35,9.37,1.22,7.86,-1.26,9.91,-1.75,12.85,-1.76,18.60,-2.33,16.61,-2.65,23.11,-8.86,19.59,-16.19,4.31,-7.86
2005-04-28 20:00,23.11,-29.13,27.63,-29.46,33.26,-20.83,34.02,-26.15,35.74,-20.03,34.43,-14.99,30.27,-16.75,28.67,-15.69,30.15,-13.43,31.88,-8.67,37.18,-6.55,35.37,-4.82,31.83,-7.22,31.56,-11.29,36.61,-12.30,38.36,-11.84,39.81,-12.11,39.56,-14.29,45.56,-15.31,48.30,-18.94,42.17,-21.43,37.91,-23.22,32.75,-23.83,17.75,-19.30
2005-04-28 21:00,8.27,16.10,8.27,16.10,8.27,16.10,8.27,16.10,8.27,16.10,8.27,16.10,8.27,16.10,8.27,16.10,8.27,16.10,8.27,16.10,8.27,16.10,8.27,16.10,8.27,16.10,8.27,16.10,8.27,16.10,8.27,16.10,8.27,16.10,8.27,16.10,8.27,16.10,8.27,16.10,8.27,16.10,8.27,16.10,8.27,16.10,8.27,16.10
2005-04-28 22:00,18.20,-46.88,12.55,-43.02,25.54,-41.27,26.96,-38.50,23.22,-36.34,21.65,-32.12,20.12,-36.18,21.33,-36.00,29.14,-32.86,31.71,-32.36,31.42,-38.33,33.26,-43.41,34.45,-42.19,32.76,-39.89,33.63,-41.30,36.81,-42.69,38.82,-46.98,37.65,-52.50,39.43,-57.39,41.00,-61.62,37.31,-60.91,36.70,-55.75,30.60,-46.89,22.35,-32.32
2005-04-28 23:00,13.59,-43.95,11.25,-37.66,11.03,-37.31,15.91,-34.17,22.53,-35.83,23.91,-31.29,17.80,-31.89,15.24,-34.39,16.15,-32.31,19.79,-31.88,24.45,-30.69,23.91,-36.54,18.80,-38.28,17.14,-43.23,19.13,-45.85,21.47,-45.62,20.26,-44.12,19.25,-46.86,19.24,-47.18,21.00,-53.96,22.75,-56.45,24.90,-55.97,19.98,-48.83,13.47,-34.11
2005-04-29 00:00,-4.56,-26.04,-7.48,-18.58,-8.22,-13.67,-8.83,-12.39,-7.99,-10.13,-0.61,-15.11,-6.35,-19.47,-13.61,-18.13,-15.57,-17.92,-18.88,-20.35,-15.79,-23.45,-12.90,-22.63,-10.11,-21.84,-11.58,-20.21,-14.10,-22.80,-19.12,-24.83,-19.81,-24.32,-17.63,-24.57,-14.82,-27.13,-13.85,-28.50,-11.17,-34.88,-12.45,-35.82,-11.19,-33.52,-4.79,-21.39
2005-04-29 01:00,-17.64,-2.30,-14.49,-0.98,-13.97,0.66,-17.66,-9.45,-21.21,-7.86,-31.73,-6.51,-31.30,-10.79,-35.28,-13.11,-42.76,-14.36,-46.15,-15.55,-42.59,-16.51,-39.15,-17.09,-32.58,-15.29,-25.32,-15.69,-23.67,-15.27,-25.95,-13.37,-30.44,-13.13,-30.65,-14.46,-29.26,-14.54,-28.05,-14.36,-23.86,-15.64,-22.43,-18.13,-20.58,-16.69,-15.75,-11.78
2005-04-29 02:00,-33.29,-7.54,-31.95,-1.23,-26.22,2.50,-34.89,-0.91,-42.39,-4.05,-47.75,-5.35,-45.99,-3.32,-44.94,-3.30,-52.75,-6.12,-57.66,-0.66,-59.24,1.98,-57.73,1.21,-57.12,-0.70,-57.79,-0.91,-60.73,2.03,-55.66,-0.02,-49.43,-5.37,-43.72,-7.42,-42.83,-6.93,-42.96,-6.54,-38.34,-6.85,-36.15,-8.77,-35.01,-8.72,-25.25,-9.68
2005-04-29 03:00,-42.73,16.32,-36.70,21.72,-37.67,25.40,-49.25,24.83,-56.43,24.94,-57.70,26.95,-52.21,29.14,-54.76,26.95,-56.07,25.48,-56.58,28.05,-56.89,31.62,-58.39,36.29,-62.89,38.20,-66.08,38.65,-64.64,43.31,-62.37,42.15,-57.43,37.54,-54.45,32.20,-53.27,27.22,-53.85,31.65,-52.70,35.59,-51.56,35.64,-47.62,32.18,-33.51,20.64
2005-04-29 04:00,-52.42,24.24,-51.05,30.77,-52.78,31.89,-53.36,33.07,-53.85,34.59,-52.01,35.08,-49.77,34.96,-53.02,35.28,-55.58,35.40,-58.24,35.81,-54.51,35.64,-50.07,36.23,-48.79,37.48,-55.76,39.86,-61.81,41.39,-64.60,43.85,-64.51,42.93,-60.62,40.30,-56.46,42.05,-51.28,44.24,-48.67,45.92,-47.93,46.89,-43.85,41.06,-31.68,26.69
2005-04-29 05:00,-43.44,24.39,-46.85,33.06,-40.50,32.26,-39.81,28.81,-34.36,26.88,-24.18,32.15,-26.14,26.79,-26.35,25.47,-22.83,31.21,-25.21,33.71,-30.59,33.77,-35.70,32.02,-37.27,29.73,-37.71,29.80,-43.56,32.65,-44.33,37.97,-40.04,37.03,-35.11,36.09,-28.08,31.21,-22.32,29.60,-17.24,28.50,-15.64,29.74,-13.08,29.30,-8.84,21.63
2005-04-29 06:00,-21.81,31.96,-20.51,46.87,-27.48,48.31,-33.93,40.57,-28.43,25.74,-20.05,25.49,-15.66,25.22,-18.11,23.70,-18.96,18.17,-17.28,24.70,-18.64,32.87,-16.59,29.44,-13.29,27.98,-11.39,25.33,-10.85,27.92,-11.75,30.05,-9.70,32.49,-9.36,31.44,-7.62,31.27,-4.35,26.64,-1.77,20.23,7.10,18.77,8.55,18.18,10.38,17.41
2005-04-29 07:00,10.70,26.54,8.10,34.63,-5.26,30.77,-7.29,18.45,-3.93,10.29,-2.46,9.61,0.67,9.04,-1.95,6.73,-3.72,3.74,0.87,9.73,2.32,12.72,3.64,8.62,12.13,7.04,14.92,8.15,11.54,10.85,9.35,10.78,11.82,13.88,17.88,12.36,19.99,5.79,21.71,1.40,25.02,-2.68,26.07,4.17,30.39,-3.37,23.63,-2.29
2005-04-29 08:00,37.92,5.87,36.95,9.87,23.40,7.93,19.56,-1.70,26.67,-7.19,28.15,-7.87,26.68,-3.62,33.33,0.20,33.37,-5.15,38.14,-8.55,39.96,-6.70,32.58,-4.98,35.09,-3.65,38.28,-1.15,43.30,-7.94,41.71,-17.07,46.02,-21.98,49.63,-22.09,53.96,-18.91,58.79,-19.56,56.93,-22.58,51.75,-30.65,43.34,-32.93,33.81,-25.48
2005-04-29 09:00,39.01,-10.27,33.16,-12.99,36.31,-19.54,34.38,-19.42,33.61,-12.42,35.31,-18.07,38.84,-22.50,44.71,-23.46,44.32,-21.27,45.67,-22.52,44.38,-21.46,48.73,-20.59,52.89,-24.40,56.33,-33.80,61.56,-35.69,63.78,-40.65,66.99,-41.82,69.99,-42.01,68.63,-42.35,65.05,-45.60,53.17,-48.15,47.97,-49.30,38.85,-47.08,27.83,-31.40
2005-04-29 10:00,52.58,-15.57,38.72,-16.24,39.44,-19.48,40.43,-16.01,37.73,-14.46,39.26,-21.84,47.14,-26.45,47.63,-28.61,48.67,-31.22,47.74,-32.56,49.08,-34.13,50.14,-38.73,54.68,-45.35,56.14,-48.25,57.10,-49.62,60.21,-49.15,61.63,-48.69,63.10,-50.63,63.32,-50.99,57.44,-50.35,51.60,-49.50,45.74,-47.60,32.06,-40.33,22.46,-25.45
2005-04-29 11:00,51.94,-27.65,42.81,-23.75,37.40,-20.65,35.93,-25.54,34.31,-31.94,31.50,-31.37,32.12,-32.64,30.90,-33.77,26.97,-40.18,26.25,-45.77,26.38,-47.82,27.97,-50.15,23.95,-47.45,20.47,-50.98,18.70,-55.96,17.50,-58.76,19.65,-59.23,22.47,-61.16,24.95,-60.05,29.55,-58.99,28.13,-55.56,27.71,-56.54,17.14,-48.16,11.80,-25.30
2005-04-29 12:00,49.24,-23.16,41.20,-29.52,38.91,-32.88,36.85,-27.76,34.54,-33.97,22.30,-31.18,17.33,-26.16,18.08,-29.48,15.57,-33.44,11.99,-33.75,6.92,-37.58,10.67,-38.80,12.55,-43.65,11.56,-43.87,5.38,-48.16,6.97,-49.85,7.59,-51.44,8.59,-49.65,8.32,-48.16,12.64,-49.82,16.16,-46.07,20.96,-46.63,20.93,-43.59,15.81,-31.26
2005-04-29 13:00,21.38,-14.25,14.93,-17.05,2.97,-14.80,-2.87,-11.01,-1.62,-17.85,-4.77,-19.49,-9.80,-17.22,-14.12,-18.82,-16.14,-24.30,-21.39,-23.67,-23.20,-27.19,-24.19,-28.67,-26.07,-34.94,-24.99,-32.39,-21.52,-27.50,-17.72,-26.27,-21.21,-27.18,-19.28,-33.50,-16.55,-32.20,-12.76,-35.18,-8.79,-31.50,-3.42,-29.25,-0.46,-27.67,0.23,-21.67
2005-04-29 14:00,,,,,,,,,,,,,,,,,,,,,,,,,,,,,,,,,,,,,,,,,,,,,,,,
2005-04-29 15:00,-23.16,4.43,-32.21,10.03,-33.63,19.03,-30.83,17.20,-33.18,19.91,-36.00,22.16,-40.20,25.43,-47.11,20.79,-50.67,19.76,-48.00,14.42,-45.63,9.30,-51.08,10.91,-53.00,11.34,-61.49,10.61,-63.37,12.21,-53.35,11.75,-45.64,13.91,-43.16,17.65,-40.31,18.57,-37.49,16.01,-33.54,15.49,-29.16,13.64,-26.30,9.94,-12.00,7.60
2005-04-29 16:00,-34.54,10.44,-40.10,14.01,-44.44,21.97,-38.71,34.52,-33.25,33.23,-37.18,40.58,-47.24,43.44,-51.37,44.21,-56.65,44.93,-61.60,43.03,-65.93,43.42,-62.20,37.37,-61.09,34.89,-65.41,33.30,-61.41,32.27,-63.87,29.17,-67.80,29.28,-59.83,31.62,-50.80,30.32,-42.66,31.78,-40.38,32.20,-31.76,33.18,-24.21,30.25,-19.36,19.41
2005-04-29 17:00,-35.53,4.66,-40.60,9.34,-34.05,18.06,-18.15,28.41,-12.16,38.84,-16.84,44.59,-25.52,49.05,-33.24,47.93,-36.80,41.33,-38.01,43.46,-40.10,48.67,-43.15,55.88,-49.45,55.23,-52.03,59.65,-51.64,59.77,-55.91,54.73,-53.87,50.03,-48.14,44.62,-43.22,43.68,-36.53,42.78,-29.16,40.11,-21.40,37.55,-12.67,29.33,-6.87,19.43
2005-04-29 18:00,-29.82,17.00,-27.39,22.19,-21.38,22.75,-13.75,23.21,-12.03,30.59,-17.32,32.67,-15.60,39.42,-10.45,41.39,-13.94,43.10,-22.13,43.73,-26.09,42.67,-21.82,42.46,-15.99,43.60,-18.36,44.10,-23.25,44.94,-27.31,41.54,-28.61,41.02,-27.18,38.54,-20.46,40.17,-15.05,40.65,-8.01,41.64,-7.80,32.79,-4.72,22.54,-3.21,10.00
2005-04-29 19:00,-22.15,30.07,-21.54,31.42,-18.13,30.62,-15.49,34.83,-15.85,41.86,-15.36,46.22,-13.67,47.81,-7.35,44.17,-0.82,37.55,5.37,36.28,4.47,41.03,-1.37,36.32,5.39,32.61,7.51,29.93,6.23,28.36,5.58,27.10,1.70,22.18,-0.12,20.34,7.61,19.14,13.72,19.42,14.15,18.72,18.43,16.53,13.44,5.89,8.84,1.26
2005-04-29 20:00,8.88,2.12,8.27,4.02,10.20,7.48,15.08,14.19,17.85,15.71,21.60,11.87,25.65,12.02,27.61,17.37,29.59,16.43,30.02,14.78,30.50,12.94,26.81,10.39,23.90,10.61,18.98,8.93,20.75,6.03,22.79,4.59,25.98,1.51,29.20,4.23,32.24,6.57,33.24,6.05,28.97,0.37,23.08,-3.51,18.65,-9.35,8.28,-9.42
2005-04-29 21:00,18.86,-10.01,22.59,-13.44,23.94,-11.43,32.03,-14.71,33.45,-12.58,35.90,-8.43,42.44,-5.91,45.61,-7.62,48.80,-5.13,45.08,-7.27,39.70,-10.78,35.47,-9.72,37.17,-13.69,44.98,-13.18,49.00,-12.62,51.90,-10.85,54.91,-7.79,57.24,-11.77,56.40,-13.40,50.26,-16.21,43.54,-17.84,37.90,-18.60,30.19,-18.14,20.88,-11.05
2005-04-29 22:00,14.62,-13.48,18.11,-18.13,24.37,-23.89,30.99,-25.55,28.33,-23.46,28.58,-18.34,34.87,-18.63,45.27,-18.34,46.43,-13.45,47.66,-17.26,49.49,-28.54,52.94,-31.42,61.30,-30.63,67.93,-28.71,69.99,-27.94,68.37,-28.78,65.82,-33.27,60.10,-35.74,54.06,-35.89,50.66,-34.46,48.11,-33.71,43.28,-32.74,41.19,-26.89,33.34,-13.56
2005-04-29 23:00,16.86,-2.15,12.13,-4.40,10.02,-14.53,17.54,-18.32,20.48,-20.94,16.83,-22.01,18.21,-23.03,25.35,-24.32,32.84,-24.75,34.82,-26.00,31.96,-29.86,34.33,-35.61,40.79,-37.42,47.18,-37.37,52.96,-37.71,53.56,-41.20,49.50,-44.60,49.24,-50.99,45.95,-54.14,44.86,-58.59,42.79,-59.36,40.70,-56.77,39.06,-51.32,26.32,-38.81
2005-04-30 00:00,31.26,-13.28,35.69,-7.45,26.93,-4.06,17.13,-3.64,9.11,-8.73,13.66,-14.10,14.65,-16.51,10.58,-15.93,11.81,-19.11,18.34,-20.47,17.86,-26.19,17.50,-35.87,16.66,-37.82,18.50,-42.90,23.54,-42.23,24.03,-40.81,22.61,-45.57,19.06,-49.55,15.19,-50.89,17.23,-48.77,15.86,-47.11,17.63,-47.06,19.17,-44.99,15.18,-30.94
2005-04-30 01:00,8.63,-14.45,11.63,-12.34,8.45,-5.37,4.60,-4.19,4.48,-4.13,7.16,-10.20,1.96,-14.28,-5.21,-16.48,-6.96,-16.94,-2.37,-22.71,0.12,-29.48,-1.12,-32.81,-4.63,-37.93,-8.05,-41.34,-11.25,-41.84,-12.29,-44.49,-13.61,-43.97,-14.27,-43.55,-15.07,-36.14,-12.43,-37.50,-6.68,-37.43,-4.28,-37.71,-1.44,-35.75,0.07,-25.40
2005-04-30 02:00,-7.97,-0.04,-12.97,2.14,-18.24,6.43,-21.72,6.47,-24.90,1.98,-35.14,-0.15,-35.14,2.16,-31.15,-2.44,-28.61,-7.72,-30.91,-9.71,-33.60,-13.10,-33.04,-13.23,-31.33,-13.63,-36.84,-11.51,-45.13,-5.98,-50.75,-5.16,-51.23,-8.26,-47.20,-6.75,-43.08,-3.86,-37.48,-3.63,-31.92,-4.26,-30.30,-6.05,-27.55,-5.80,-18.60,-3.56
2005-04-30 03:00,-18.88,8.75,-11.33,10.75,-17.65,19.33,-28.14,17.64,-39.23,15.87,-41.45,12.63,-45.60,5.94,-56.32,6.28,-59.15,7.27,-58.84,4.32,-52.50,-0.05,-50.48,2.49,-50.50,2.90,-58.91,0.31,-70.66,-3.36,-70.89,3.60,-69.42,5.23,-66.04,7.47,-61.31,12.03,-48.69,14.93,-42.85,17.33,-34.03,19.95,-28.99,18.32,-18.87,12.32
2005-04-30 04:00,-35.51,5.93,-31.58,3.83,-29.58,15.92,-31.19,24.54,-40.40,24.10,-53.75,23.81,-61.59,21.40,-61.65,21.27,-63.66,25.88,-67.58,28.29,-71.06,28.65,-72.97,27.09,-83.10,23.63,-86.54,21.58,-83.50,18.67,-81.77,14.92,-78.50,16.18,-74.67,22.24,-72.20,28.60,-67.20,37.24,-63.82,40.11,-55.59,46.22,-49.29,41.31,-37.89,31.32
2005-04-30 05:00,-53.56,15.68,-53.67,13.75,-47.51,13.21,-39.73,16.13,-39.26,21.21,-48.41,26.47,-60.12,34.47,-64.77,37.18,-62.12,36.46,-58.20,33.09,-59.14,34.05,-60.63,37.04,-61.05,32.81,-62.03,33.23,-60.63,37.04,-58.22,37.39,-58.03,31.26,-53.61,27.63,-50.70,28.36,-44.38,33.22,-37.11,41.65,-32.21,47.00,-22.52,50.85,-11.05,36.36
2005-04-30 06:00,-47.52,35.16,-47.73,30.89,-43.88,24.46,-36.37,22.98,-35.20,22.31,-46.52,25.50,-53.91,26.91,-52.28,31.00,-47.92,36.08,-49.25,39.22,-49.55,40.81,-46.21,38.94,-38.44,35.34,-36.00,33.29,-41.21,34.14,-41.20,31.83,-35.74,33.48,-31.87,29.26,-26.22,22.78,-23.61,17.94,-21.30,18.89,-15.29,24.08,-7.84,26.05,-0.79,17.50
2005-04-30 07:00,-13.48,16.78,-14.87,8.36,-13.92,5.40,-19.86,5.60,-20.93,14.49,-19.37,18.78,-12.15,24.77,-3.03,29.38,0.16,37.44,-0.79,36.82,-3.96,33.28,-5.22,31.62,-14.10,35.07,-12.99,34.58,-6.70,37.23,-6.98,32.52,-8.94,23.60,-10.22,17.10,-9.73,15.26,-9.24,13.73,-2.17,18.52,7.68,16.64,16.74,11.99,15.95,1.02
2005-04-30 08:00,10.22,-5.65,3.66,-3.87,1.61,-2.74,-1.32,-1.79,1.03,4.32,0.75,1.92,7.75,2.70,15.29,7.33,16.76,11.26,20.02,16.82,16.39,14.71,13.34,10.79,11.93,9.61,13.99,12.37,13.92,11.61,15.11,10.52,10.13,9.03,11.12,1.36,11.08,-1.80,11.67,-0.35,17.35,-4.30,26.23,-7.44,29.21,-15.41,21.14,-13.17
2005-04-30 09:00,18.70,-7.54,13.04,-4.32,10.87,-4.07,12.67,-3.49,17.12,-4.59,27.15,-4.10,37.96,0.84,37.60,5.24,36.92,4.08,34.94,5.65,32.17,6.44,38.51,4.70,40.36,3.19,41.40,3.21,36.83,7.62,33.00,6.81,29.17,1.38,30.57,-0.69,32.61,-2.76,32.04,-5.57,31.94,-8.54,34.35,-19.32,31.07,-24.16,23.25,-22.68
2005-04-30 10:00,23.78,-25.97,22.26,-20.58,22.68,-22.23,27.83,-28.45,39.50,-31.43,47.63,-30.92,47.10,-32.87,46.58,-28.95,38.93,-28.67,46.19,-32.33,48.19,-28.74,46.87,-28.22,47.41,-25.64,44.54,-27.18,42.26,-27.29,42.21,-23.52,43.63,-24.33,41.46,-25.76,45.89,-31.06,49.97,-33.95,48.75,-41.27,43.76,-43.40,37.61,-41.91,24.49,-27.53
2005-04-30 11:00,28.17,-20.99,20.96,-29.30,21.85,-25.86,25.83,-23.85,40.11,-30.08,46.48,-29.61,44.39,-29.97,43.83,-31.19,47.90,-29.15,49.38,-30.15,48.23,-28.52,47.67,-30.38,47.05,-32.05,49.08,-31.50,53.79,-28.84,52.97,-31.83,60.73,-33.44,63.71,-35.21,62.49,-39.59,55.47,-42.58,49.38,-41.28,45.88,-40.51,38.67,-38.00,24.83,-27.95
2005-04-30 12:00,47.60,-2.05,35.04,-6.08,20.72,-14.14,23.84,-14.40,27.12,-9.88,32.47,-15.10,40.09,-20.84,38.26,-25.95,41.40,-28.51,41.91,-27.82,38.33,-31.39,35.50,-32.40,39.51,-30.80,36.06,-36.42,36.06,-39.05,39.33,-37.78,41.50,-39.61,47.60,-45.53,51.80,-51.74,48.10,-51.67,39.19,-47.81,31.00,-42.25,24.77,-36.58,15.48,-24.02
2005-04-30 13:00,40.23,-2.31,36.00,1.06,23.71,-3.52,7.88,-5.24,-1.05,-6.53,4.84,-5.59,11.65,-7.18,17.82,-13.29,15.05,-17.43,15.98,-18.71,17.07,-23.72,13.41,-25.73,15.30,-26.70,16.27,-27.12,15.07,-26.67,9.35,-29.77,12.65,-34.48,13.59,-43.63,9.80,-45.59,13.01,-41.51,11.76,-31.41,9.95,-27.05,4.66,-22.03,4.53,-13.46
2005-04-30 14:00,13.94,-14.95,9.04,-5.92,-2.95,-0.95,-18.38,5.55,-20.54,4.43,-17.37,2.41,-13.94,-7.63,-10.86,-15.25,-11.18,-16.19,-11.73,-17.11,-16.96,-20.46,-15.31,-20.67,-13.33,-20.98,-11.52,-20.40,-13.31,-19.71,-19.40,-23.66,-22.16,-33.37,-24.41,-33.88,-16.39,-26.16,-12.17,-16.72,-13.69,-13.64,-12.09,-9.13,-11.05,-6.49,-9.74,-5.65
2005-04-30 15:00,-6.53,-1.57,-7.87,11.44,-14.60,20.94,-24.79,31.74,-22.48,29.12,-21.66,25.92,-21.48,16.21,-24.22,5.77,-23.81,2.86,-27.03,3.72,-28.53,2.18,-26.17,1.68,-25.34,-3.20,-23.85,-2.93,-23.85,-3.25,-30.07,-8.40,-30.75,-12.18,-33.12,-9.37,-31.18,-2.66,-25.23,6.29,-22.54,11.98,-19.60,14.61,-16.61,19.35,-14.03,15.56
2005-04-30 16:00,-13.03,19.66,-15.09,33.91,-16.73,40.00,-13.96,44.14,-22.02,45.02,-32.92,40.37,-40.02,33.05,-45.15,29.41,-48.97,32.48,-50.07,33.92,-43.66,32.30,-47.94,26.31,-45.05,21.56,-45.82,20.05,-47.00,16.52,-43.35,17.59,-41.00,15.82,-43.20,13.86,-40.33,19.30,-39.02,23.08,-36.80,29.88,-33.43,36.74,-28.22,41.46,-16.19,31.77
2005-04-30 17:00,-20.30,17.75,-22.43,30.29,-22.37,33.36,-14.88,35.24,-11.49,36.12,-20.28,47.47,-34.16,48.48,-41.73,44.26,-44.23,43.56,-42.57,48.51,-46.17,45.67,-46.23,43.55,-46.30,36.91,-55.26,36.03,-59.44,38.26,-57.58,40.33,-52.43,37.04,-51.48,35.04,-50.93,32.70,-47.27,35.03,-40.65,41.56,-36.25,47.49,-29.28,54.24,-15.35,44.22
2005-04-30 18:00,-36.35,21.62,-35.41,23.29,-33.99,28.68,-24.69,26.84,-13.67,24.60,-8.57,31.28,-12.15,36.22,-23.02,43.23,-27.75,47.49,-30.22,49.32,-33.86,49.20,-40.01,48.39,-42.07,47.93,-44.68,46.26,-46.49,39.79,-45.52,44.94,-38.79,52.45,-33.44,53.44,-30.37,44.55,-32.02,35.93,-28.35,32.70,-21.99,36.42,-9.24,41.88,-1.94,30.57